Tracking 31027 objects as of 19-Jul-2025
HD Live streaming from Space Station
objects crossing your sky now

COSMOS 2251 DEB

Track COSMOS 2251 DEB now!
10-day predictions


NORAD ID: 40238
Int'l Code: 1993-036BVT
Perigee: 757.0 km
Apogee: 1,591.2 km
Inclination: 74.0 °
Period: 108.7 minutes
Semi major axis: 7545 km
RCS: Unknown
Launch date: June 16, 1993
Source: Commonwealth of Independent States (former USSR) (CIS)
Launch site: PLESETSK MISSILE AND SPACE COMPLEX (PKMTR)

Note: This is SATELLITE DEBRIS
Your satellite tracking list
NUSAT-20 (GRACE)
Track 1 satellite(s)




NASA's NSSDC Master Catalog

Two Line Element Set (TLE):
1 40238U 93036BVT 25196.52419611  .00001259  00000-0  13074-2 0  9994
2 40238  73.9915 294.2035 0552766 295.5461  58.9471 13.24662885520478
Source of the keplerian elements: AFSPC